sat.trackr.live / text

‹ back to catalog

STARLINK-5445

NORAD 54790 · 2022-175AJ

PAYLOAD ACTIVE UNKNOWN

§ Identity

Operator
Country
US
Launch date
2022-12-17
Launch site
AFETR
Launch vehicle
Mass (kg)
RCS (m²)

Purposes: comms

External: N2YO · Heavens-Above · Gunter

§ Orbital elements

Epoch: 2026-05-25T03:19:02.320320Z

Period
95.44 min
Inclination
53.2129°
Eccentricity
0.0001198
Mean motion
15.08837461 rev/d
Perigee alt
538.9 km
Apogee alt
540.6 km
Semi-major
6,917.9 km
B*
1.4329e-5
RAAN
45.7178°
Arg perigee
79.0430°
Mean anomaly
281.0696°
Rev number
19,167

§ Raw data

STARLINK-54451 54790U 22175AJ  26145.13822130 -.00000060  00000+0  14329-4 0  99992 54790  53.2129  45.7178 0001198  79.0430 281.0696 15.08837461191672

JSON: /api/v1/satellites/54790 · /tle

For live sub-satellite position, see the globe view (requires WebGL).

§ Visibility from observer

Set your observer location to see the next 7 days of passes ≥ 10°. The values pass through the URL so the page stays shareable.

No JS? Fill the form by hand. The geolocation button needs JavaScript.